Home   Weather   India   Narasimharajapur   Past weeks
Flag for India

Past Weather in Narasimharajapur, Karnataka, India — Yesterday and Last 2 Weeks

Currently: 77 °F. Fog. (Weather station: Mangalore / Bajpe, India). See more current weather

Past Weather in Narasimharajapur — Graph

°F

Narasimharajapur Temperature Yesterday

Maximum temperature yesterday: 79 °F (at 9:00 am)
Minimum temperature yesterday: 73 °F (at 9:30 pm)
Average temperature yesterday: 76 °F

High & Low Weather Summary for the Past Weeks

 TemperatureHumidityPressure
High84 °F (Jul 11, 3:30 pm)100% (Jul 9, 6:00 pm)29.89 "Hg (Jul 9, 6:00 pm)
Low72 °F (Jul 9, 8:00 pm)70% (Jul 9, 3:00 pm)29.62 "Hg (Jul 15, 3:30 pm)
Average77 °F96%29.76 "Hg
* Reported Jul 9 7:30 am — Jul 24 7:00 am, Narasimharajapur. Weather by CustomWeather, © 2024

Note: Actual official high and low records may vary slightly from our data, if they occured in-between our weather recording intervals... More about our weather records

Narasimharajapur Weather History for the Previous 24 Hours

Scroll right to see more
 ConditionsComfort  
Time TempWeatherWind HumidityBarometerVisibility
7:00 am
Wed, Jul 24
75 °FFog.2 mph100%29.80 "Hg3 mi
6:30 am75 °FLight rain. Fog.2 mph100%29.80 "Hg3 mi
6:00 am75 °FLight rain. Fog.7 mph100%29.77 "Hg2 mi
5:30 am75 °FFog.2 mph100%29.74 "Hg2 mi
5:00 am75 °FFog.5 mph100%29.77 "Hg2 mi
4:30 am75 °FFog.2 mph94%29.77 "Hg2 mi
4:00 am75 °FFog.2 mph94%29.77 "Hg2 mi
3:30 am75 °FFog.2 mph94%29.77 "Hg2 mi
3:00 am75 °FFog.2 mph94%29.80 "Hg2 mi
2:30 am75 °FFog.2 mph94%29.80 "Hg2 mi
2:00 am75 °FFog.No wind94%29.80 "Hg2 mi
1:30 am75 °FFog.No wind94%29.80 "Hg2 mi
12:30 am75 °FFog.No wind100%29.83 "Hg2 mi
12:00 am75 °FMostly cloudy.No wind100%29.86 "Hg4 mi
11:30 pm
Tue, Jul 23
75 °FMostly cloudy.3 mph100%29.86 "Hg4 mi
11:00 pm75 °FMostly cloudy.3 mph100%29.86 "Hg4 mi
10:00 pm73 °FDrizzle. Fog.6 mph100%29.86 "Hg3 mi
9:30 pm73 °FRain. Fog.12 mph100%29.83 "Hg2 mi
8:30 pm79 °FMostly cloudy.6 mph94%29.83 "Hg4 mi
8:00 pm79 °FMostly cloudy.6 mph94%29.83 "Hg4 mi
7:30 pm77 °FMostly cloudy.3 mph100%29.83 "Hg4 mi
7:00 pm79 °FMore clouds than sun.3 mph94%29.83 "Hg4 mi
6:30 pm79 °FMore clouds than sun.3 mph94%29.83 "Hg4 mi
6:00 pm79 °FMore clouds than sun.3 mph94%29.80 "Hg4 mi
5:30 pm79 °FMore clouds than sun.6 mph94%29.80 "Hg4 mi
4:30 pm79 °FMore clouds than sun.9 mph94%29.80 "Hg3 mi
4:00 pm77 °FFog.9 mph100%29.80 "Hg3 mi
3:00 pm79 °FMore clouds than sun.5 mph94%29.80 "Hg4 mi
2:30 pm79 °FFog.5 mph94%29.83 "Hg3 mi
2:00 pm77 °FFog.5 mph100%29.83 "Hg2 mi
1:00 pm77 °FFog.6 mph94%29.86 "Hg3 mi
12:30 pm75 °FFog.6 mph100%29.86 "Hg3 mi
12:00 pm75 °FLight rain. Fog.7 mph100%29.86 "Hg2 mi
11:30 am75 °FRain. Fog.12 mph100%29.86 "Hg2 mi
11:00 am75 °FLight rain. Fog.7 mph100%29.89 "Hg2 mi
10:30 am75 °FDrizzle. Fog.12 mph100%29.89 "Hg3 mi
10:00 am75 °FLight rain. Fog.9 mph94%29.89 "Hg2 mi
9:30 am79 °FLight rain. Fog.17 mph100%29.89 "Hg2 mi
9:00 am79 °FFog.6 mph94%29.86 "Hg3 mi
8:30 am77 °FFog.2 mph100%29.86 "Hg3 mi
8:00 am75 °FFog.2 mph100%29.83 "Hg3 mi
Weather by CustomWeather, © 2024

See weather overview